Вернуться в каталог

STARLINK-4610

АктивенСвязьVLEO
NORAD 53610·PAYLOAD·🇺🇸 United States

Запущен Aug 28, 2022 с Cape Canaveral Space Force Station

Loading…

Ближайшие Пролёты (ближайшие 24 часа)

TLE

СвежийSource: CelesTrak SupGP

Эпоха: Sep 14, 2026, 20:29 UTC

1 53610C 22104Y   26257.85395833 -.00034420  00000+0 -11070-2 0  2572
2 53610  53.1578  99.1611 0001201  84.5305 356.1371 15.31714720    10

Отслеживайте STARLINK-4610 в реальном времени с AllMySat

Download on the App Store